Tracking 29892 objects as of 21-Nov-2024
HD Live streaming from Space Station
objects crossing your sky now

ORBCOMM FM 23

Track ORBCOMM FM 23 now!
10-day predictions
ORBCOMM FM 23 is classified as:


NORAD ID: 25477
Int'l Code: 1998-053C
Perigee: 776.0 km
Apogee: 778.2 km
Inclination: 45.0 °
Period: 100.2 minutes
Semi major axis: 7148 km
RCS: 0.5896 m2 (medium)
Launch date: September 23, 1998
Source: ORBCOMM (ORB)
Launch site: Pegasus launched from Eastern Range Air Space (ERAS)
Your satellite tracking list
Your tracking list is empty




NASA's NSSDC Master Catalog

Two Line Element Set (TLE):
1 25477U 98053C   24326.09614090  .00001678  00000-0  61410-3 0  9993
2 25477  45.0070 176.6734 0001556 238.6836 121.3859 14.36533835367770
Source of the keplerian elements: AFSPC